[[{"header":{"parameterUnit":"m.s-1","parameterCategory":1,"la1":30.2991,"la2":30.254,"lo1":-89.0895,"lo2":-89.0444,"dy":0.0017,"dx":0.0017,"nx":28,"ny":28,"refTime":"2024-06-16T21:00:00:Z","depth":0,"parameterNumber":2,"parameterNumberName":"U-component_of_WINDS"},"data":[0,0,0,0,0,0,0,0,0,0,0,0,0,0,0,0,0,0,0,0,0,0,0,0,0,0,0,0,0,0,0,0,0,0,0,0,0,0,0,0,0,0,0,0,0,0,0,0,0,0,0,0,0,0,0,0,0,0,-7.1291,-7.1291,0,-7.1346,-7.1346,-7.1347,-7.1248,-7.1244,-7.1241,-7.1238,-7.1292,-7.1296,-7.1301,0,0,0,0,0,0,0,0,0,0,0,0,0,-7.1099,-7.1103,-7.1291,-7.1291,-7.1292,-7.1346,-7.1346,-7.1347,-7.1248,-7.1244,-7.124,-7.1236,-7.129,-7.1296,-7.1301,0,0,0,0,0,0,0,0,0,0,0,0,0,-7.1171,-7.1104,-7.129,-7.1249,-7.1246,-7.1345,-7.1346,-7.1347,-7.1249,-7.1244,-7.1239,-7.1235,-7.1288,-7.1295,-7.1302,-7.1443,0,0,-7.1322,-7.1325,0,0,0,0,0,0,0,0,-7.1167,-7.1178,-7.1255,-7.1252,-7.1249,-7.1285,-7.1298,-7.1379,-7.125,-7.1248,-7.1238,-7.1232,-7.1293,-7.1299,-7.132,-7.1445,-7.1448,-7.1323,-7.1327,-7.133,-7.1332,0,0,0,0,0,0,0,-7.1162,-7.1175,-7.1312,-7.1256,-7.1252,-7.1228,-7.1232,-7.1313,-7.1298,-7.1248,-7.1241,-7.1249,-7.1291,-7.1314,-7.1321,-7.1449,-7.1323,-7.1329,-7.1333,-7.1336,-7.1692,-7.1697,0,0,0,0,0,0,-7.1162,-7.1171,-7.131,-7.1314,-7.1195,-7.1235,-7.124,-7.1278,-7.1297,-7.1295,-7.1253,-7.1244,-7.1305,-7.1313,-7.1322,-7.1488,-7.133,-7.1336,-7.134,-7.1687,-7.1693,-7.1699,0,0,0,0,0,0,-7.1159,-7.1176,-7.1308,-7.1241,-7.1256,-7.1244,-7.1287,-7.1282,-7.1305,-7.13,-7.1297,-7.128,-7.1301,-7.1313,-7.1414,-7.1488,-7.1339,-7.1346,-7.1681,-7.1689,-7.1696,-7.182,0,0,0,0,0,0,-7.1154,-7.1175,-7.1228,-7.1243,-7.126,-7.1399,-7.1292,-7.1287,-7.1317,-7.1306,-7.1325,-7.1323,-7.1298,-7.1404,-7.1421,-7.1495,-7.1351,-7.1674,-7.1684,-7.1694,-7.1809,-7.1832,-7.1851,0,0,0,0,0,-7.1147,-7.1261,-7.1232,-7.1249,-7.1327,-7.1404,-7.1413,-7.1383,-7.1324,-7.1377,-7.1375,-7.1322,-7.1479,-7.1415,-7.1433,-7.151,-7.1669,-7.1681,-7.1693,-7.18,-7.1827,-7.185,0,0,0,0,0,0,-7.1253,-7.1262,-7.1229,-7.1351,-7.1378,-7.1387,-7.1453,-7.1413,-7.1456,-7.1444,-7.1404,-7.141,-7.1518,-7.1525,-7.1454,-7.1648,-7.1563,-7.158,-7.1639,-7.1665,-7.1685,-7.1679,-7.1356,0,0,0,0,0,-7.1292,-7.1354,-7.1358,-7.1465,-7.148,-7.1465,-7.1497,-7.1473,-7.1498,-7.1508,-7.1512,-7.1539,-7.1593,-7.163,-7.168,-7.1812,-7.1813,-7.1874,-7.1894,-7.1911,-7.1924,-7.1994,-7.202,-7.1739,-7.1739,-7.1739,0,0,-7.137,-7.1382,-7.1424,-7.1487,-7.1504,-7.1569,-7.1475,-7.1547,-7.1594,-7.1519,-7.1613,-7.1619,-7.1645,-7.1762,-7.1814,-7.1771,-7.2003,-7.1927,-7.194,-7.1944,-7.2009,-7.2035,-7.2059,-7.1747,-7.1746,-7.1745,0,0,-7.1545,-7.1562,-7.1652,-7.1672,-7.1701,-7.169,-7.1713,-7.1729,-7.1729,-7.1825,-7.1769,-7.1826,-7.1921,-7.1942,-7.1965,-7.2153,-7.2106,-7.2171,-7.2276,-7.2344,-7.2366,-7.2386,-7.245,-7.2474,-7.2185,-7.2185,-7.2185,0,-7.1637,-7.1733,-7.1703,-7.178,-7.1809,-7.1746,-7.1837,-7.1858,-7.1901,-7.1923,-7.1875,-7.1995,-7.2008,-7.2128,-7.2174,-7.2196,-7.2219,-7.2166,-7.2366,-7.2385,-7.2402,-7.2463,-7.2488,-7.2193,-7.2192,-7.2191,-7.219,0,-7.1846,-7.1914,-7.1983,-7.2028,-7.2065,-7.2149,-7.2131,-7.2173,-7.2146,-7.2141,-7.2239,-7.2255,-7.2306,-7.2334,-7.2308,-7.2451,-7.2424,-7.2373,-7.2285,-7.2437,-7.2494,-7.2517,-7.2203,-7.2201,-7.2198,-7.2196,0,0,-7.2084,-7.2114,-7.2139,-7.2159,-7.2187,-7.2239,-7.2321,-7.2373,-7.2408,-7.2442,-7.2508,-7.2592,-7.2545,-7.2572,-7.2549,-7.2609,-7.2754,-7.255,-7.255,-7.2584,-7.291,-7.2946,-7.2974,-7.2725,-7.273,-7.2733,-7.2907,0,-7.2256,-7.2396,-7.2372,-7.2508,-7.257,-7.2513,-7.2584,-7.2609,-7.2608,-7.266,-7.2658,-7.2717,-7.2652,-7.2668,-7.2725,-7.2724,-7.2818,-7.2712,-7.2784,-7.2787,-7.2775,-7.3004,-7.3041,-7.3205,-7.2929,-7.2933,-7.2936,0,-7.2473,-7.2516,-7.2658,-7.2678,-7.2703,-7.2767,-7.2813,-7.2865,-7.2892,-7.2887,-7.2919,-7.2885,-7.2966,-7.2883,-7.2993,-7.2921,-7.295,-7.2955,-7.296,-7.2962,-7.2868,-7.3009,-7.3256,-7.3279,-7.2971,-7.2968,-7.2966,0,-7.2629,-7.2723,-7.282,-7.2839,-7.2865,-7.2911,-7.2924,-7.2948,-7.2981,-7.3022,-7.3043,-7.3093,-7.312,-7.316,-7.314,-7.3081,-7.3254,-7.3169,-7.325,-7.325,-7.3285,-7.3282,-7.3537,-7.3311,-7.331,-7.331,-7.3309,0,-7.2821,-7.2909,-7.289,-7.2949,-7.3047,-7.3021,-7.3118,-7.3124,-7.3146,-7.3205,-7.3161,-7.3217,-7.319,-7.3245,-7.3231,-7.3323,-7.3336,-7.3333,-7.3328,-7.3335,-7.3335,-7.335,-7.3337,-7.3316,-7.3315,-7.3314,-7.3312,0,-7.301,-7.3001,-7.3102,-7.312,-7.3127,-7.3198,-7.3213,-7.3268,-7.3265,-7.334,-7.3357,-7.3351,-7.3413,-7.34,-7.3468,-7.3458,-7.3574,-7.3556,-7.3564,-7.3559,-7.364,-7.3631,-7.391,-7.3944,-7.3699,-7.3702,-7.3704,0,-7.313,-7.3197,-7.3223,-7.326,-7.3277,-7.3337,-7.3371,-7.3349,-7.3387,-7.3425,-7.3476,-7.3534,-7.3579,-7.3682,-7.3683,-7.3735,-7.3716,-7.3811,-7.3723,-7.3728,-7.3714,-7.3708,-7.3714,-7.3826,-7.3829,-7.3831,-7.3833,0,-7.3345,-7.3338,-7.3389,-7.344,-7.3483,-7.3522,-7.3556,-7.3589,-7.3569,-7.3614,-7.3677,-7.3713,-7.3784,-7.3842,-7.389,-7.3903,-7.3865,-7.3862,-7.3882,-7.3888,-7.3889,-7.3887,-7.3607,-7.3854,-7.3852,-7.385,-7.3849,-7.3848,-7.3501,-7.3557,-7.3585,-7.3644,-7.3668,-7.3702,-7.3755,-7.376,-7.3812,-7.3868,-7.3853,-7.3925,-7.3952,-7.4014,-7.4033,-7.4089,-7.4053,-7.4084,-7.4091,-7.4099,-7.4107,-7.3884,-7.4098,-7.4098,-7.4097,-7.4097,-7.4096,0,-7.371,-7.3726,-7.3781,-7.3831,-7.3878,-7.3841,-7.3878,-7.3919,-7.3983,-7.4013,-7.4059,-7.4133,-7.419,-7.4198,-7.4252,-7.4295,-7.4278,-7.4309,-7.4304,-7.4307,-7.4137,-7.4112,-7.4321,-7.4321,-7.4321,-7.4321,-7.4321,-7.4321,-7.3824,-7.3917,-7.3914,-7.402,-7.4035,-7.4106,-7.413,-7.4161,-7.4184,-7.4268,-7.4316,-7.4322,-7.4343,-7.4398,-7.4449,-7.445,-7.447,-7.4507,-7.4501,-7.4342,-7.4319,-7.4297,-7.4273,-7.4513,-7.4513,-7.4666,-7.4667,-7.4668]},{"header":{"parameterUnit":"m.s-1","parameterCategory":1,"la1":30.2991,"la2":30.254,"lo1":-89.0895,"lo2":-89.0444,"dy":0.0017,"dx":0.0017,"nx":28,"ny":28,"refTime":"2024-06-16T21:00:00:Z","depth":0,"parameterNumber":3,"parameterNumberName":"V-component_of_WINDS"},"data":[0,0,0,0,0,0,0,0,0,0,0,0,0,0,0,0,0,0,0,0,0,0,0,0,0,0,0,0,0,0,0,0,0,0,0,0,0,0,0,0,0,0,0,0,0,0,0,0,0,0,0,0,0,0,0,0,0,0,2.7369,2.7369,0,2.7399,2.74,2.74,2.7436,2.7437,2.7437,2.7438,2.7464,2.7464,2.7465,0,0,0,0,0,0,0,0,0,0,0,0,0,2.7339,2.7339,2.7369,2.7369,2.7369,2.7399,2.74,2.74,2.7436,2.7437,2.7437,2.7438,2.7464,2.7464,2.7465,0,0,0,0,0,0,0,0,0,0,0,0,0,2.7358,2.7339,2.7369,2.7391,2.7393,2.7399,2.74,2.74,2.7436,2.7437,2.7438,2.7438,2.7464,2.7464,2.7465,2.7449,0,0,2.7465,2.7466,0,0,0,0,0,0,0,0,2.7357,2.736,2.7387,2.739,2.7392,2.7415,2.7399,2.7416,2.7436,2.742,2.7438,2.7439,2.7447,2.7449,2.7452,2.745,2.7452,2.7465,2.7466,2.7466,2.7466,0,0,0,0,0,0,0,2.7356,2.7358,2.7381,2.7388,2.7391,2.7399,2.7403,2.7402,2.7428,2.7421,2.7424,2.7427,2.7448,2.7452,2.7453,2.7452,2.7465,2.7466,2.7466,2.7466,2.7441,2.744,0,0,0,0,0,0,2.7352,2.7357,2.738,2.7382,2.7377,2.7399,2.7403,2.7407,2.7428,2.7432,2.7426,2.7429,2.7451,2.7453,2.7454,2.7438,2.7466,2.7466,2.7466,2.7442,2.7441,2.744,0,0,0,0,0,0,2.7351,2.7353,2.7378,2.737,2.7374,2.7398,2.7402,2.7407,2.7411,2.7432,2.7436,2.7426,2.7452,2.7454,2.7451,2.744,2.7466,2.7466,2.7443,2.7441,2.744,2.7406,0,0,0,0,0,0,2.735,2.7353,2.7348,2.737,2.7374,2.7375,2.7402,2.7407,2.7411,2.7415,2.7433,2.7436,2.7453,2.745,2.7451,2.7441,2.7467,2.7444,2.7442,2.744,2.7408,2.7404,2.74,0,0,0,0,0,2.7349,2.7335,2.7347,2.735,2.7369,2.7375,2.7377,2.7397,2.741,2.7405,2.7419,2.7436,2.7441,2.745,2.7451,2.744,2.7444,2.7442,2.7441,2.741,2.7405,2.74,0,0,0,0,0,0,2.7309,2.7339,2.7352,2.7346,2.7358,2.7381,2.7374,2.7391,2.7398,2.74,2.7424,2.7428,2.7422,2.7431,2.744,2.7427,2.7445,2.7444,2.7422,2.7417,2.7413,2.741,2.7467,0,0,0,0,0,2.73,2.7304,2.7329,2.7321,2.7326,2.735,2.7353,2.7368,2.738,2.7385,2.7399,2.7409,2.7414,2.7416,2.7421,2.741,2.7415,2.7404,2.74,2.7396,2.7394,2.739,2.7385,2.7434,2.7434,2.7434,0,0,2.728,2.7297,2.7297,2.7313,2.7324,2.7327,2.7353,2.7354,2.7356,2.7385,2.7383,2.7394,2.7408,2.7401,2.7399,2.7408,2.7382,2.7394,2.7391,2.7391,2.7388,2.7383,2.7379,2.7432,2.7432,2.7433,0,0,2.7246,2.7259,2.7255,2.7266,2.7283,2.7299,2.7298,2.7319,2.7328,2.7328,2.735,2.7352,2.7359,2.7368,2.7373,2.7345,2.7361,2.7346,2.7324,2.732,2.7316,2.7313,2.7303,2.7299,2.7344,2.7344,2.7344,0,2.7219,2.7225,2.725,2.725,2.7257,2.7286,2.7281,2.729,2.7307,2.7311,2.7322,2.7332,2.7343,2.734,2.7333,2.7337,2.7336,2.7344,2.7315,2.7312,2.7309,2.73,2.7296,2.7342,2.7343,2.7343,2.7343,0,2.7191,2.7195,2.7189,2.7208,2.7214,2.7211,2.7235,2.7238,2.7254,2.7268,2.7268,2.7283,2.7292,2.7292,2.7306,2.7291,2.7297,2.7311,2.7329,2.7302,2.7294,2.7291,2.734,2.734,2.7341,2.7341,0,0,2.713,2.7165,2.7162,2.7172,2.7194,2.7197,2.7197,2.7208,2.721,2.7221,2.7221,2.7228,2.7242,2.7248,2.7264,2.726,2.7238,2.7275,2.7276,2.7267,2.7223,2.7211,2.7207,2.7249,2.7248,2.7248,2.7221,0,2.71,2.7102,2.7126,2.7121,2.7125,2.7154,2.7153,2.7167,2.7181,2.7186,2.7201,2.7205,2.7224,2.7228,2.7226,2.7241,2.7229,2.7243,2.7248,2.7248,2.7243,2.7203,2.719,2.7165,2.7218,2.7218,2.7218,0,2.7064,2.7076,2.7072,2.7097,2.7099,2.7099,2.7112,2.7116,2.7132,2.7143,2.7151,2.717,2.717,2.7189,2.719,2.7199,2.7203,2.7211,2.721,2.7211,2.723,2.7201,2.7157,2.7153,2.7213,2.7213,2.7213,0,2.702,2.7035,2.7036,2.7043,2.7071,2.707,2.7082,2.7099,2.7105,2.7116,2.712,2.713,2.7135,2.7142,2.7163,2.7174,2.7162,2.7182,2.717,2.7169,2.7165,2.7165,2.712,2.7168,2.7168,2.7168,2.7168,0,2.6983,2.698,2.7017,2.7016,2.7014,2.7041,2.7037,2.7051,2.7067,2.707,2.7094,2.7096,2.7124,2.7129,2.7145,2.7143,2.7146,2.7154,2.7158,2.7151,2.715,2.7153,2.7155,2.7167,2.7168,2.7168,2.7168,0,2.6933,2.6958,2.696,2.6988,2.6995,2.6992,2.7015,2.7016,2.7033,2.7036,2.7038,2.7064,2.7071,2.7093,2.7105,2.7116,2.711,2.7118,2.7105,2.7107,2.7095,2.7095,2.7049,2.7045,2.7096,2.7096,2.7095,0,2.6908,2.6906,2.6935,2.694,2.6951,2.6958,2.6965,2.6992,2.6998,2.7017,2.7015,2.7025,2.7034,2.7044,2.7063,2.7073,2.7081,2.7065,2.7083,2.7077,2.7081,2.7081,2.7081,2.706,2.7059,2.7059,2.7058,0,2.686,2.6873,2.6883,2.6897,2.6905,2.6917,2.6931,2.6933,2.6963,2.6969,2.6978,2.6985,2.6999,2.7008,2.7021,2.7032,2.705,2.7053,2.7051,2.7043,2.7036,2.704,2.7094,2.7054,2.7054,2.7054,2.7055,2.7055,2.6821,2.6822,2.6843,2.6853,2.6867,2.688,2.6882,2.6901,2.6909,2.6924,2.6939,2.6947,2.6964,2.6984,2.6994,2.6999,2.7009,2.7005,2.7004,2.7003,2.7,2.7036,2.7002,2.7002,2.7002,2.7002,2.7002,0,2.6775,2.679,2.68,2.682,2.6828,2.6847,2.6863,2.6868,2.6875,2.6891,2.69,2.6911,2.6921,2.6941,2.6953,2.6953,2.6962,2.6955,2.6955,2.6957,2.6991,2.6992,2.6948,2.6948,2.6948,2.6948,2.6948,2.6948,2.6752,2.6754,2.677,2.6779,2.6795,2.6804,2.6811,2.6823,2.6836,2.6848,2.6857,2.6871,2.6889,2.6902,2.6912,2.6918,2.692,2.6911,2.6919,2.695,2.6955,2.696,2.6961,2.6911,2.6911,2.6886,2.6885,2.6885]}]]